Location: Dodgeville, WI 53533, USA
(43.0344°N, 90.0900°W)
Time: 19:06:58
(UTC-06:00)

N. Korean satellite - Pass Details

Date: 27 January 2021
Orbit: 451 x 502 km, 97.2° (Epoch: 06 March)

Event Time Altitude Azimuth Distance (km) Brightness Sun altitude
Rises 17:50:51 0° 216° (SW) 2,575 11.2 -8.4°
Reaches altitude 10° 17:54:33 10° 256° (WSW) 1,690 11.0 -9.0°
Maximum altitude 17:55:26 11° 270° (W) 1,644 10.6 -9.2°
Drops below altitude 10° 17:56:19 10° 284° (WNW) 1,687 10.3 -9.3°
Sets 18:00:00 0° 324° (NW) 2,562 10.5 -10.0°
